TimeMST,TemperatureF,Dew PointF,Humidity,Sea Level PressureIn,VisibilityMPH,Wind Direction,Wind SpeedMPH,Gust SpeedMPH,PrecipitationIn,Events,Conditions,WindDirDegrees,DateUTC
12:00 AM,-34.6,-9999,N/A,30.26,12.0,Calm,Calm,-,N/A,,Partly Cloudy,0,2013-02-14 07:00:00
1:00 AM,-36.4,-9999,N/A,30.26,12.0,WSW,3.5,-,N/A,,Partly Cloudy,240,2013-02-14 08:00:00
2:00 AM,-36.4,-9999,N/A,30.27,12.0,SW,3.5,-,N/A,,Partly Cloudy,230,2013-02-14 09:00:00
3:00 AM,-38.2,-9999,N/A,30.26,12.0,Calm,Calm,-,N/A,,Partly Cloudy,0,2013-02-14 10:00:00
4:00 AM,-38.2,-9999,N/A,30.27,12.0,Calm,Calm,-,N/A,,Partly Cloudy,0,2013-02-14 11:00:00
5:00 AM,-39,,,30.27,12,Calm,Calm,,,Snow,Snow,,2013-02-14 12:00:00
5:00 AM,-38.2,-9999,N/A,30.27,12.0,Calm,Calm,-,N/A,,Partly Cloudy,0,2013-02-14 12:00:00
6:00 AM,-40.0,-9999,N/A,30.25,8.0,Calm,Calm,-,N/A,,Partly Cloudy,0,2013-02-14 13:00:00
7:00 AM,-41.8,-9999,N/A,30.25,5.0,Calm,Calm,-,N/A,,Ice Crystals,0,2013-02-14 14:00:00
8:00 AM,-41.8,-9999,N/A,30.24,7.0,Calm,Calm,-,N/A,Fog,Partly Cloudy,0,2013-02-14 15:00:00
9:00 AM,-41.8,-9999,N/A,30.23,15.0,NNW,2.3,-,N/A,Fog,Partly Cloudy,330,2013-02-14 16:00:00
10:00 AM,-40.0,-9999,N/A,30.22,12.0,NE,2.3,-,N/A,Fog,Partly Cloudy,50,2013-02-14 17:00:00
11:00 AM,-40,,,30.22,15,Calm,Calm,,,Snow,Snow,,2013-02-14 18:00:00
11:00 AM,-40.0,-9999,N/A,30.22,15.0,Calm,Calm,-,N/A,Fog,Partly Cloudy,0,2013-02-14 18:00:00
12:00 PM,-36.4,-9999,N/A,30.21,15.0,Calm,Calm,-,N/A,Fog,Partly Cloudy,0,2013-02-14 19:00:00
1:00 PM,-36.4,-9999,N/A,30.20,15.0,Calm,Calm,-,N/A,Fog,Mostly Cloudy,0,2013-02-14 20:00:00
1:38 PM,-9999,-9999,N/A,-9999,8.0,Calm,Calm,-,N/A,Fog,Unknown,0,2013-02-14 20:38:00
2:00 PM,-32.8,-40.0,68,30.21,8.0,Calm,Calm,-,N/A,Fog-Snow,Light Snow,0,2013-02-14 21:00:00
3:00 PM,-31.0,-38.2,68,30.22,7.0,Calm,Calm,-,N/A,Fog-Snow,Light Snow,0,2013-02-14 22:00:00
4:00 PM,-31.0,-32.8,91,30.21,6.0,Calm,Calm,-,N/A,Snow,Light Snow,0,2013-02-14 23:00:00
5:00 PM,-30,-32,81,30.20,7,NW,2.3,,,Snow,Light Snow,310,2013-02-15 00:00:00
5:00 PM,-31.0,-32.8,91,30.20,8.0,NW,2.3,-,N/A,Snow,Light Snow,310,2013-02-15 00:00:00
6:00 PM,-29.2,-31.0,91,30.19,10.0,Calm,Calm,-,N/A,Snow,Light Snow,0,2013-02-15 01:00:00
7:00 PM,-29.2,-31.0,91,30.18,10.0,Calm,Calm,-,N/A,Snow,Light Snow,0,2013-02-15 02:00:00
8:00 PM,-27.4,-29.2,91,30.16,10.0,Calm,Calm,-,N/A,Snow,Light Snow,0,2013-02-15 03:00:00
9:00 PM,-27.4,-34.6,69,30.15,12.0,Calm,Calm,-,N/A,Snow,Light Snow,0,2013-02-15 04:00:00
10:00 PM,-25.6,-32.8,69,30.15,10.0,Calm,Calm,-,N/A,Snow,Light Snow,0,2013-02-15 05:00:00
11:00 PM,-25,-30,62,30.12,10,NNE,4.6,,,Snow,Light Snow,20,2013-02-15 06:00:00
11:00 PM,-23.8,-31.0,69,30.12,10.0,NNE,4.6,-,N/A,Snow,Light Snow,20,2013-02-15 06:00:00